This is the latest recevied weather packets stored in our database for station/object MB7UKY-10. If no packets are shown the sender has not sent any weather packets the latest 10 day(s).
| Time | Temp. | Humidity | Pressure | Rain* | Wind** | Luminosity | Snow |
|---|---|---|---|---|---|---|---|
| 1777634494 | 22.78° C | 43% | 1015.5 hPa | - | - | - | - |
| 1777633583 | 22.78° C | 42% | 1015.5 hPa | - | - | - | - |
| 1777632672 | 22.22° C | 43% | 1015.7 hPa | - | - | - | - |
| 1777631762 | 22.22° C | 43% | 1015.9 hPa | - | - | - | - |
| 1777630851 | 22.22° C | 43% | 1016.1 hPa | - | - | - | - |
| 1777629940 | 21.67° C | 44% | 1016.2 hPa | - | - | - | - |
| 1777629039 | 21.67° C | 44% | 1016.4 hPa | - | - | - | - |
| 1777628138 | 21.67° C | 43% | 1016.3 hPa | - | - | - | - |
| 1777627238 | 21.67° C | 44% | 1016.4 hPa | - | - | - | - |
| 1777626334 | 22.22° C | 44% | 1016.5 hPa | - | - | - | - |
| 1777625433 | 22.22° C | 44% | 1016.5 hPa | - | - | - | - |
| 1777624532 | 22.22° C | 44% | 1016.6 hPa | - | - | - | - |
| 1777623631 | 22.22° C | 45% | 1016.7 hPa | - | - | - | - |
| 1777622731 | 21.67° C | 46% | 1016.7 hPa | - | - | - | - |
| 1777621830 | 21.11° C | 47% | 1016.8 hPa | - | - | - | - |
| 1777620929 | 20.56° C | 47% | 1016.8 hPa | - | - | - | - |
| 1777620028 | 19.44° C | 48% | 1016.8 hPa | - | - | - | - |
| 1777619128 | 18.89° C | 48% | 1016.8 hPa | - | - | - | - |
| 1777618227 | 17.78° C | 48% | 1016.8 hPa | - | - | - | - |
| 1777617326 | 17.22° C | 48% | 1016.8 hPa | - | - | - | - |
| 1777616425 | 16.67° C | 47% | 1016.8 hPa | - | - | - | - |
| 1777615525 | 15.56° C | 47% | 1016.8 hPa | - | - | - | - |
| 1777614624 | 15° C | 47% | 1016.8 hPa | - | - | - | - |
| 1777613723 | 14.44° C | 46% | 1016.7 hPa | - | - | - | - |
| 1777612822 | 14.44° C | 46% | 1016.6 hPa | - | - | - | - |
* Rain since midnight (hover to see other rain measurements)
** Current wind speed in m/s (hover to see current wind gust speed)